Weather Roundup
Issued by NWS

Home | Current Version | Previous Version | Text Only | Print | Product List | Glossary On
Versions: 1 2 3 4 5 6 7 8 9 10 11 12 13 14 15 16 17 18 19 20 21 22 23 24 25 26 27 28 29 30 31 32 33 34 35 36 37 38 39 40 41 42 43 44 45 46 47 48 49 50
000
NZUS93 KARX 281910
HRRWXR

CURRENT HOURLY OBSERVATIONS ACROSS
MUCH OF THE UPPER MISSISSIPPI VALLEY
NATIONAL WEATHER SERVICE LA CROSSE WI
200 PM CDT TUE MAR 28 2017


...SOUTHEAST MINNESOTA...


CITY           SKY/WX    TMP DP  RH WIND       PRES   REMARKS
ROCHESTER      SUNNY     54  41  61 NE8       30.16S
ROCHESTER/MAYO FAIR      55  39  54 E6        30.16S
WINONA         SUNNY     54  41  62 CALM      30.17S
AUSTIN         SUNNY     54  39  58 E6        30.14F
ALBERT LEA     MOSUNNY   54  37  54 NE7       30.14F
DODGE CENTER   SUNNY     54  39  58 NE3       30.15F
PRESTON        SUNNY     53  37  55 E3        30.15F
OWATONNA       SUNNY     55  37  50 E5        30.16S
FARIBAULT      SUNNY     59  39  47 CALM      30.15S
$$

...ELSEWHERE IN MINNESOTA...


CITY           SKY/WX    TMP DP  RH WIND       PRES   REMARKS
MINNEAPOLIS    MOSUNNY   61  34  36 NE3       30.15S
INTNL FALLS    SUNNY     51  30  44 NE7       30.18F
DULUTH         MOSUNNY   58  30  34 CALM      30.15S
RED WING       SUNNY     57  37  47 CALM      30.14F
REDWOOD FALLS  SUNNY     62  36  37 VRB3      30.14F
MANKATO        SUNNY     58  38  47 E6        30.15F
WORTHINGTON    PTSUNNY   56  38  50 E10       30.13F
FAIRMONT       SUNNY     56  40  55 E12       30.15S
$$

...SOUTHWEST WISCONSIN...


CITY           SKY/WX    TMP DP  RH WIND       PRES   REMARKS
LA CROSSE      SUNNY     56  40  55 W10       30.15S
PRAIRIE DU CHI PTSUNNY   51  38  60 SE7       30.15S
BOSCOBEL       PTSUNNY   54  37  52 VRB5      30.16S
LONE ROCK      MOSUNNY   53  37  54 VRB3      30.15S
PLATTEVILLE    CLOUDY    46  41  85 NE7       30.16S
FORT MC COY    SUNNY     56  36  47 E7        30.16S
CAMP DOUGLAS   SUNNY     56  37  48 SE8       30.14F
MAUSTON-NEW LI CLEAR     54  38  55 N3        30.14F
VIROQUA        FAIR      54  37  51 CALM      30.13F
WIS DELLS      SUNNY     54  37  52 E3        30.14F
$$

...ELSEWHERE IN WISCONSIN...


CITY           SKY/WX    TMP DP  RH WIND       PRES   REMARKS
MILWAUKEE      PTSUNNY   42  36  79 NE12      30.16R
MADISON        MOSUNNY   53  38  56 NE9       30.14S
GREEN BAY      SUNNY     46  39  76 NE10      30.18S
EAU CLAIRE     SUNNY     57  33  40 CALM      30.15F
BLACK RVR FLS  FAIR      57  32  38 NE5       30.15F
MEDFORD        SUNNY     51  35  54 S6        30.15S
WAUSAU         SUNNY     54  31  41 SE6       30.14S
WIS RAPIDS     SUNNY     56  34  43 VRB3      30.16F
MARSHFIELD     SUNNY     51  37  58 E3        30.15F
RICE LAKE      SUNNY     57  30  35 CALM      30.17S
$$

...NORTHEAST IOWA...


CITY           SKY/WX    TMP DP  RH WIND       PRES   REMARKS
WATERLOO       MOSUNNY   54  39  57 NE6       30.13S
DUBUQUE        CLOUDY    48  41  76 NE7       30.14S
DECORAH        SUNNY     54  39  58 CALM      30.13S
MASON CITY     MOSUNNY   55  38  52 NE9       30.15S
CHARLES CITY   SUNNY     55  37  50 CALM      30.14F
OELWEIN        MOSUNNY   54  39  58 E6        30.14R
$$

...ELSEWHERE IN IOWA...


CITY           SKY/WX    TMP DP  RH WIND       PRES   REMARKS
DES MOINES     CLOUDY    51  42  71 NE6       30.12F
IOWA CITY      CLOUDY    51  46  83 E5        30.15S
FORT DODGE     PTSUNNY   54  41  62 SE10      30.13F
MARSHALLTOWN   CLOUDY    51  43  74 SE6       30.13S
CEDAR RAPIDS   CLOUDY    50  45  83 NE8       30.13R
$$

...NORTHERN ILLINOIS...


CITY           SKY/WX    TMP DP  RH WIND       PRES   REMARKS
CHICAGO-OHARE  CLOUDY    48  37  65 N13       30.13R
CHICAGO-MIDWAY CLOUDY    46  37  71 NE13G21   30.13S
MOLINE         CLOUDY    53  43  68 E9        30.13F
ROCKFORD       CLOUDY    49  39  68 NE7       30.16S
PEORIA         CLOUDY    52  43  71 VRB7      30.13S
$$

NOTE: "FAIR" INDICATES FEW OR NO CLOUDS BELOW 12,000 FEET WITH NO
SIGNIFICANT WEATHER AND/OR OBSTRUCTIONS TO VISIBILITY. WIND
SPEEDS ARE IN MILES-PER-HOUR.




USA.gov is the U.S. government's official web portal to all federal, state and local government web resources and services.